Oujda, Morocco

10:45 PM WET on March 22, 2017 (GMT +0000)
Angads

Weather History for GMFO - November, 2013

Change the Weather History Date:

Saturday, November 30, 2013

  Actual Average Record
Temperature  
Mean Temperature 47 °F -  
Max Temperature 60 °F 60 °F 72 °F (2015)
Min Temperature 34 °F 41 °F 34 °F (2013)
Degree Days  
Heating Degree Days 18    
Moisture  
Dew Point 33 °F    
Average Humidity 65    
Maximum Humidity 100    
Minimum Humidity 17    
Precipitation  
Precipitation 0.00 in 0.06 in - ()
Sea Level Pressure  
Sea Level Pressure 30.08 in    
Wind  
Wind Speed 5 mph ()    
Max Wind Speed 10 mph    
Max Gust Speed -    
Visibility 10.6 miles    
Events      
Averages and records for this station are not official NWS values.
T = Trace of Precipitation, MM = Missing Value Source: Averaged Metar Reports

Daily Weather History Graph

Daily Weather History Graph

Search for Another Location

Airport or City:

Trip Planner

Search our weather history database for the weather conditions in past years. The results will help you decide how hot, cold, wet, or windy it might be!

Date:

Astronomy

Nov. 30, 2013 Rise Set
Actual Time 6:55 AM WET 4:56 PM WET
Civil Twilight 6:28 AM WET 5:24 PM WET
Nautical Twilight 5:57 AM WET 5:55 PM WET
Astronomical Twilight 5:26 AM WET 6:25 PM WET
Moon 3:56 AM WET (11/30) 3:05 PM WET (11/30)
Length of Visible Light 10h 56m
Length of Day
10h 00m
Waning Crescent, 8% of the Moon is Illuminated
Nov 30
Waning Crescent
Dec 3
New
Dec 9
First Quarter
Dec 17
Full
Dec 25
Last Quarter

Hourly Weather History & Observations

Time (WET) Temp. Windchill Dew Point Humidity Pressure Visibility Wind Dir Wind Speed Gust Speed Precip Events Conditions
12:00 AM 38 °F - 35 °F 83% 30.32 in 9 mi WSW 5.8 mph - -   Scattered Clouds
12:00 AM 37.4 °F 32.8 °F 35.6 °F 93% 30.24 in 6.2 mi WSW 5.8 mph - N/A   Partly Cloudy
2:00 AM 35.6 °F 31.7 °F 32.0 °F 87% 30.21 in - SW 4.6 mph - N/A   Clear
3:00 AM 36 °F - 34 °F 87% 30.29 in 9 mi SW 6.9 mph - -  
3:00 AM 35.6 °F 29.9 °F 33.8 °F 93% 30.21 in - SW 6.9 mph - N/A   Clear
5:00 AM 33.8 °F - 32.0 °F 93% 30.18 in - Calm Calm - N/A   Clear
6:00 AM 35 °F - 33 °F 91% 30.24 in 9 mi WNW 2.3 mph - -  
8:00 AM 35.6 °F 32.8 °F 35.6 °F 100% 30.15 in - South 3.5 mph - N/A   Clear
9:00 AM 43 °F - 41 °F 90% 30.19 in 16 mi SSW 10.4 mph - -  
9:00 AM 42.8 °F 37.0 °F 41.0 °F 93% 30.15 in - SSW 10.4 mph - N/A   Clear
10:00 AM 50.0 °F - 41.0 °F 71% 30.12 in - SSW 9.2 mph - N/A   Clear
11:00 AM 53.6 °F - 35.6 °F 51% 30.12 in - SW 4.6 mph - N/A   Clear
12:00 PM 56 °F - 32 °F 27% 30.08 in 16 mi SSW 8.1 mph - -  
2:00 PM 59.0 °F - 28.4 °F 31% 30.01 in - NW 4.6 mph - N/A   Clear
3:00 PM 59 °F - 26 °F 17% 29.96 in 16 mi West 2.3 mph - -   Scattered Clouds
3:00 PM 59.0 °F - 26.6 °F 29% 29.98 in - Variable 2.3 mph - N/A   Clear
4:00 PM 60.8 °F - 23.0 °F 23% 29.95 in - West 3.5 mph - N/A   Clear
5:00 PM 53.6 °F - 35.6 °F 51% 29.92 in - North 5.8 mph - N/A   Clear
6:00 PM 48.2 °F - 35.6 °F 62% 29.92 in - SSW 4.6 mph - N/A   Clear
8:00 PM 48.2 °F - 30.2 °F 50% 29.89 in - West 4.6 mph - N/A   Clear
9:00 PM 46 °F - 31 °F 44% 29.92 in 12 mi NW 2.3 mph - -   Scattered Clouds
9:00 PM 46.4 °F - 32.0 °F 57% 29.89 in 6.2 mi Variable 2.3 mph - N/A   Scattered Clouds
11:00 PM 42.8 °F 41.1 °F 33.8 °F 70% 29.86 in 6.2 mi SSW 3.5 mph - N/A   Scattered Clouds